SCP
0 0 0 0 0 0 0 0 0 0 0 0 0 0 0 0 0 0 0 0 0 0 0 0 0 0 0 0 0 0 -0 -0 0 0 0 0 0 0 0 0 0 0 0 0 0 0 0 0 -0 -0 0 -0 0 0
0 0 0 0 0 0 0 0 0 0 0 0 0 0 0 0 0 0 0 0 0 0 0 -0 -0 -0 0 -0 0 -0 0 0 0 0 0 0 0 0 0 0 0 0 0 0 0 0 0 0 0 0 0 0 0 0
0 0 0 0 0 0 0 0 0 0 0 0 0 0 0 0 0 0 0 0 0 0 0 0 0 0 0 0 0 0 0 0 0 0 0 0 0 0 0 0 0 0 0 0 0 0 0 0 0 0 0 0 0 0
0 0 0 0 0 0 0 0 0 0 0 0 0 0 0 0 0 0 0 0 0 0 0 0 0 0 0 0 0 0 0 0 0 0 0 0 0 0 0 -0 -0 0 -0 0 0 0 -0 0 0 0 0 0 0 0
0 0 0 0 0 0 0 0 0 0 0 0 0 0 0 0 0 0 0 -0 0 0 0 0 -0 -0 0 0 0 0 0 0 0 0 0 0 0 0 0 0 0 0 0 0 0 0 0 0 0 0 0 0 0 0
0 0 0 0 0 0 0 0 0 0 0 0 0 0 0 0 0 0 0 0 0 0 0 0 -0 -0 0 0 0 0 0 0 0 0 0 0 0 0 0 0 0 0 0 0 0 0 0 0 0 0 0 0 0 0
0 0 0 0 0 0 0 0 0 0 0 0 0 0 0 0 0 0 0 0 0 0 0 0 0 -0 0 -0 0 0 0 0 0 0 0 0 0 0 0 0 0 0 0 0 0 0 0 0 0 0 0 0 0 0
0 0 0 0 0 0 0 0 0 0 0 0 0 0 0 0 0 0 0 0 0 0 0 0 0 -0 0 0 0 0 0 0 0 0 0 0 0 0 0 -0 -0 0 0 0 0 0 0 0 0 0 0 0 0 0
0 0 0 0 0 0 0 0 0 0 0 0 0 0 0 0 0 0 0 0 0 0 0 0 0 0 0 0 0 0 0 0 0 0 0 0 0 0 0 0 0 0 0 0 0 0 0 0 0 0 0 0 0 0
0 0 0 0 0 0 0 0 0 0 0 0 0 0 0 0 0 0 0 0 0 0 0 -0 -0 -0 0 0 0 0 -0 -0 0 -0 0 0 0 -0 0 0 0 0 0 0 0 0 0 0 0 0 0 0 0 0
0 0 0 0 0 0 0 0 0 0 0 0 0 0 0 0 0 0 0 0 0 0 0 0 -0 -0 -0 -0 0 -0 -0 -0 0 0 0 0 0 0 0 0 0 0 0 0 0 0 0 0 0 0 0 0 0 0
0 0 0 0 0 0 0 0 0 0 0 0 0 -0 0 0 0 0 0 0 0 0 0 0 0 0 0 0 0 0 0 0 0 0 0 0 0 0 0 0 0 0 0 0 0 0 0 0 0 0 0 0 0 -0
0 0 0 0 0 0 0 0 0 0 -0 0 0 0 0 0 0 0 0 0 0 0 0 0 0 0 0 0 0 0 0 0 0 0 0 0 0 -0 0 0 0 0 0 0 0 0 0 0 0 0 0 0 -0 0
0 0 0 0 0 0 0 0 0 0 0 0 0 0 0 0 0 0 -0 0 0 0 -0 0 0 0 0 0 0 0 0 0 0 0 0 0 -0 0 0 0 0 0 0 0 0 0 0 -0 0 0 0 0 -0 -0
0 0 0 0 0 0 0 0 0 0 0 0 0 0 0 0 -0 -0 -0 0 0 -0 0 0 0 0 0 0 0 0 0 0 0 0 0 0 0 0 0 0 0 0 0 0 0 0 0 0 0 0 -0 0 0 0
0 0 0 0 0 0 0 0 0 0 0 0 0 0 0 0 -0 -0 -0 0 0 0 0 0 0 0 0 0 0 0 0 0 0 -0 -0 -0 0 0 0 0 0 0 0 0 0 0 0 0 0 0 0 0 0 0
0 0 0 0 0 0 0 0 0 0 0 0 0 0 0 0 0 0 0 0 0 0 0 0 0 0 0 0 0 0 0 -0 -0 -0 -0 0 0 0 0 0 0 0 0 0 0 0 0 0 0 0 0 0 -0 -0
0 0 0 0 0 0 0 0 0 0 0 0 0 0 0 0 0 0 0 0 0 0 0 0 0 0 0 0 0 0 0 -0 -0 -0 0 0 0 0 0 0 0 0 0 0 0 0 0 0 0 0 0 0 0 0
0 0 0 0 -0 0 0 0 0 0 0 0 0 0 0 -0 -0 -0 0 0 0 0 0 0 0 0 0 -0 -0 0 0 0 -0 0 0 0 0 0 0 0 0 0 0 0 0 0 0 0 0 0 0 0 0 0
-0 -0 -0 0 -0 -0 -0 0 0 0 0 0 0 -0 -0 -0 -0 0 -0 0 0 0 -0 -0 0 -0 -0 -0 -0 0 0 0 0 0 0 -0 0 0 0 0 0 0 0 0 0 0 0 0 0 0 0 0 0 0
-0 -0 0 -0 -0 -0 -0 -0 0 -0 -0 -0 0 0 -0 0 -0 -0 0 0 0 -0 0 -0 -0 -0 -0 -0 0 0 0 0 -0 -0 -0 -0 0 0 0 0 0 0 0 0 0 0 0 0 0 -0 -0 0 0 0
0 -0 -0 0 -0 0 -0 0 0 -0 -0 0 0 0 0 0 0 0 0 0 0 0 -0 -0 0 -0 0 0 0 0 0 -0 -0 0 -0 -0 -0 0 0 0 0 0 0 0 0 -0 -0 0 0 0 -0 -0 -0 -0
-0 -0 0 0 0 0 0 0 0 0 0 0 0 0 0 0 0 0 0 0 -0 -0 -0 -0 0 0 0 0 0 0 0 -0 0 0 -0 -0 -0 -0 0 0 0 0 0 0 0 0 0 0 0 0 0 0 0 -0
0 0 0 0 0 0 0 0 0 0 0 0 0 0 0 0 0 0 0 -0 -0 0 0 0 0 0 0 0 0 0 0 0 0 0 -0 -0 -0 -0 0 0 0 0 0 0 0 0 0 0 0 0 0 0 0 0
0 0 0 0 0 0 0 0 0 0 0 0 0 0 0 0 0 -0 -0 0 -0 0 0 -0 0 0 0 0 0 0 0 0 0 0 0 -0 -0 -0 0 0 0 0 0 0 0 0 0 0 0 0 0 0 0 0
0 0 0 0 0 0 0 0 0 0 0 0 0 0 0 0 0 0 0 0 0 0 0 0 0 0 0 0 0 0 0 0 0 0 0 -0 -0 0 0 0 0 0 0 0 0 0 0 0 0 0 0 0 0 0
0 0 0 0 0 0 0 0 0 0 0 0 0 0 0 0 0 0 0 0 0 0 0 0 0 0 0 0 0 0 0 0 0 0 0 0 0 0 0 0 0 0 0 0 0 0 0 0 0 0 0 0 0 0
0 0 0 0 0 0 0 0 0 0 0 0 0 0 0 0 0 0 0 0 0 0 0 0 0 0 0 0 0 -0 -0 -0 -0 0 0 0 0 0 0 0 0 -0 0 0 0 0 0 0 0 0 0 0 0 -0
0 0 0 0 0 0 0 0 0 0 0 0 0 0 -0 -0 -0 0 0 0 0 0 0 0 0 0 0 -0 0 0 0 -0 -0 -0 -0 -0 -0 -0 -0 -0 -0 0 -0 0 0 0 -0 -0 -0 -0 -0 0 0 0
0 0 0 0 0 0 0 0 0 0 0 0 -0 -0 0 -0 0 -0 0 0 0 0 0 0 0 0 0 -0 0 0 0 0 0 0 0 -0 -0 -0 -0 0 0 -0 0 -0 0 0 -0 -0 -0 -0 -0 -0 -0 -0
0 0 0 0 0 0 0 0 0 0 0 0 0 0 0 0 -0 0 0 0 0 0 0 0 0 0 0 0 0 0 0 0 0 0 0 0 0 0 -0 -0 0 0 0 0 0 0 0 -0 -0 -0 -0 -0 -0 -0
0 0 0 0 0 0 0 0 -0 0 0 0 0 0 0 -0 0 0 0 0 0 0 0 0 0 0 0 0 0 0 0 0 0 0 0 0 0 0 0 0 0 0 0 0 0 0 0 -0 -0 -0 -0 -0 -0 -0
0 0 0 0 0 0 0 0 -0 0 -0 -0 -0 0 0 -0 -0 -0 -0 -0 0 0 0 0 0 0 0 -0 -0 -0 -0 0 0 0 0 0 0 0 0 0 0 0 0 0 0 -0 -0 0 0 -0 -0 0 -0 -0
Wind_Speed_500mb
80 74 69 63 57 54 49 44 37 34 28 35 33 27 17 16 10 13 8 6 12 9 38 21 15 13 15 10 2 16 14 5 8 4 4 6 4 5 7 11 8 2 2 5 2 5 9 27 11 5 17 44 37 38
66 60 54 49 45 41 37 30 26 21 30 31 25 19 16 12 11 13 8 6 16 19 37 41 32 37 31 32 16 2 6 13 9 5 7 6 5 7 10 5 12 4 1 4 3 8 30 23 13 14 30 41 45 49
46 40 36 32 29 25 22 20 18 25 26 24 20 15 12 10 11 17 19 13 21 20 40 23 26 21 19 22 24 12 5 5 10 12 8 4 4 6 4 7 11 14 23 5 3 5 15 43 24 45 49 47 53 56
28 27 26 27 25 22 19 18 22 24 20 17 13 9 11 12 14 16 20 8 19 14 9 13 13 6 10 18 28 23 13 5 8 13 3 3 4 8 5 9 11 15 18 10 9 13 47 3 47 52 58 52 56 58
26 24 24 23 21 18 19 20 18 16 14 11 8 6 10 12 12 15 19 14 16 14 9 23 36 23 17 24 26 22 21 20 13 4 3 4 10 7 11 8 9 6 5 2 8 28 26 42 58 52 52 57 60 61
22 21 20 20 20 17 14 12 13 7 7 8 10 14 16 11 9 8 6 3 22 14 11 6 19 10 4 37 36 28 19 12 9 3 5 9 10 2 5 6 14 15 15 19 15 28 40 51 49 48 49 55 55 59
19 17 17 13 10 10 5 2 1 4 5 11 17 22 20 19 19 12 7 5 15 3 6 11 11 9 23 28 27 26 23 12 12 5 7 9 12 8 4 7 17 22 9 20 25 34 38 35 43 50 56 57 52 61
8 7 7 4 2 2 0 4 7 10 17 20 19 17 13 12 8 19 22 9 13 10 8 5 8 6 35 20 14 18 16 14 10 8 9 11 7 10 9 33 39 29 25 27 24 29 39 47 43 51 51 55 54 49
3 2 1 3 5 7 14 17 16 15 11 8 2 2 2 6 3 10 11 8 16 11 6 7 5 3 13 28 13 12 14 6 13 10 9 13 6 11 19 30 31 33 25 32 36 38 38 47 40 46 62 53 52 50
4 8 13 14 17 18 14 10 7 6 5 11 10 2 3 6 11 4 5 7 10 11 12 10 16 5 7 1 5 9 9 5 4 10 9 6 8 46 44 39 35 32 37 39 35 36 37 34 32 55 50 45 42 46
15 14 13 12 11 10 9 7 4 12 15 5 3 4 4 6 6 6 6 8 10 8 13 14 32 13 4 5 4 16 5 5 5 8 6 6 6 10 7 10 17 24 25 27 26 26 22 26 39 43 41 38 41 40
11 10 10 11 9 8 6 5 13 21 11 7 7 7 6 8 7 5 7 10 11 7 17 11 22 22 7 3 1 4 4 3 8 26 6 5 2 9 11 16 19 23 23 21 19 15 14 29 33 31 29 31 40 33
9 8 10 10 9 9 10 7 17 18 17 8 5 6 8 9 8 9 10 7 5 11 13 10 10 8 7 7 1 1 3 7 9 5 5 2 10 12 15 19 20 16 14 16 15 12 22 27 31 29 31 28 32 30
8 11 11 11 8 9 13 11 14 17 6 7 8 6 8 9 10 10 13 4 17 7 9 15 15 6 5 3 2 4 8 6 5 4 3 3 11 10 12 15 16 18 18 12 12 11 26 31 32 32 29 28 30 30
8 11 10 7 6 8 12 17 13 16 8 9 10 8 14 27 29 22 17 14 13 17 14 15 10 10 4 3 6 7 6 6 7 4 4 6 11 14 11 12 8 14 19 15 11 12 20 31 31 36 41 34 28 29
9 5 6 2 1 4 8 16 12 16 9 10 15 13 24 20 22 27 23 16 22 16 15 12 6 4 6 5 8 10 5 8 5 5 9 11 12 11 9 7 6 10 15 17 11 11 20 21 25 36 37 35 32 31
4 1 1 2 5 4 9 18 13 11 11 11 16 32 37 33 27 28 12 6 4 13 5 7 8 10 7 7 6 7 8 6 14 10 7 8 6 10 12 9 8 9 14 15 10 10 14 19 19 18 35 29 25 35
9 12 13 6 8 8 13 22 10 13 16 21 24 29 31 28 33 32 12 8 10 14 16 8 6 6 6 5 3 8 8 8 7 7 9 2 3 10 8 6 9 10 15 11 11 16 13 18 20 20 28 32 43 42
16 10 5 6 6 8 9 12 16 10 24 33 36 42 36 38 31 28 14 8 15 15 9 9 6 5 6 2 4 20 24 7 2 7 7 5 7 4 9 6 11 7 16 7 13 15 13 18 16 19 14 14 28 26
9 11 12 10 8 5 8 11 16 13 13 17 20 28 34 25 27 26 28 26 26 18 13 8 8 15 11 13 12 24 12 2 6 10 11 13 11 17 13 10 10 7 14 15 15 18 16 17 20 22 28 15 13 15
6 10 9 5 5 11 10 10 9 16 19 24 31 28 25 26 25 33 30 28 23 10 8 13 10 20 33 19 15 19 10 4 3 6 11 17 11 11 15 13 14 27 17 13 13 14 18 20 21 18 27 31 29 29
13 3 4 6 6 8 14 17 14 15 13 22 34 24 13 14 21 20 21 9 7 11 9 8 11 11 12 18 21 12 9 6 12 4 5 17 16 15 15 16 20 19 15 14 17 20 18 13 18 13 25 26 30 28
6 3 5 7 7 7 16 12 9 8 7 9 15 11 10 8 12 14 8 11 7 12 16 14 14 16 15 10 7 13 11 9 6 5 30 28 19 19 22 18 19 20 17 11 13 12 17 17 15 17 22 21 24 25
5 5 6 6 13 9 12 9 9 8 11 10 4 8 7 11 14 8 3 5 1 13 16 13 12 12 14 13 12 13 12 8 12 21 25 29 28 24 18 20 17 19 13 13 11 13 19 16 20 17 17 16 24 22
5 6 7 9 10 9 9 8 15 14 24 22 5 8 7 8 2 7 6 15 23 15 9 4 6 8 16 17 29 7 5 8 15 26 26 22 32 31 26 22 25 20 11 10 15 22 20 21 23 22 22 21 19 21
6 6 9 6 10 3 7 8 6 9 9 5 11 6 2 3 2 4 4 9 14 9 6 3 8 17 27 17 14 18 27 25 29 35 17 17 24 33 29 22 21 16 13 14 12 18 22 23 21 23 22 22 18 16
6 7 6 14 14 19 13 15 31 11 8 7 6 8 2 2 5 4 7 5 3 9 8 12 17 23 33 9 16 20 21 25 27 29 32 27 22 18 25 22 25 19 15 13 18 18 17 18 19 21 19 15 18 17
12 10 11 27 18 20 18 14 7 10 7 10 14 5 7 3 2 3 2 5 4 6 17 23 17 30 26 23 20 25 28 24 26 31 31 27 19 17 23 21 21 21 24 19 19 17 22 17 19 15 18 16 19 11
19 22 23 28 18 7 4 5 4 7 6 3 3 4 5 4 6 6 2 15 17 28 35 25 32 26 19 17 27 30 19 23 21 21 30 30 24 25 30 34 33 23 18 15 14 14 18 15 14 17 17 14 18 15
20 16 17 24 11 7 10 17 16 7 12 11 7 1 12 13 11 13 15 18 27 22 20 19 12 16 19 23 26 28 26 26 25 24 25 23 14 20 19 21 32 23 28 30 21 18 20 23 18 15 12 9 10 11
12 14 16 22 18 7 17 4 13 14 14 5 9 5 15 16 18 24 27 10 14 12 17 21 22 19 25 28 25 25 25 25 24 28 25 23 24 22 19 20 26 26 22 10 9 10 15 19 16 15 11 11 15 16
8 10 11 13 22 21 28 8 10 5 14 6 7 13 13 9 12 9 15 17 14 16 16 18 25 26 25 26 24 26 22 24 22 22 24 26 22 20 22 21 16 13 8 13 14 16 15 11 12 13 10 13 13 14
13 10 13 17 16 5 11 10 8 5 7 5 6 12 14 10 10 7 9 5 13 10 14 21 26 24 21 15 12 12 10 10 19 22 23 22 18 19 19 19 17 12 12 12 10 10 10 10 11 13 13 10 12 15
Wind_Direction_500mb
300 300 300 298 296 294 293 290 287 286 287 301 299 295 278 287 269 248 225 238 275 273 287 285 294 269 284 256 144 332 343 271 324 329 17 347 308 319 327 342 321 297 332 227 263 221 262 9 319 353 312 321 327 327
300 300 299 298 296 295 293 292 285 290 296 293 289 274 273 278 264 254 286 317 323 280 270 286 272 247 252 264 257 200 228 277 334 38 10 344 339 314 354 292 40 40 139 231 200 253 322 27 345 327 336 321 317 318
301 301 303 304 304 301 296 289 292 292 290 286 270 262 265 273 270 260 274 271 315 301 312 298 294 247 246 235 232 188 263 7 22 14 18 314 291 11 302 294 5 335 335 230 282 254 3 330 330 329 325 317 314 310
305 309 310 308 305 300 293 285 288 284 275 268 252 254 274 273 268 267 274 260 292 288 276 286 352 220 252 184 203 213 226 296 353 344 14 266 268 327 281 288 286 259 295 326 289 318 340 165 323 317 314 314 313 310
307 309 310 310 314 308 301 289 284 276 269 243 231 279 286 296 270 277 286 230 265 266 292 300 307 266 245 201 192 191 211 246 268 289 65 242 301 340 324 277 254 135 161 228 251 316 281 286 310 316 316 314 316 311
311 307 308 305 297 294 288 284 288 255 229 239 263 279 288 275 274 328 341 244 232 266 303 305 315 266 164 205 181 179 193 198 214 213 248 265 244 258 290 272 187 204 220 224 245 284 285 297 303 316 304 307 322 316
295 299 307 310 303 297 283 139 241 244 262 277 277 285 281 273 252 208 226 158 173 212 278 299 281 264 177 159 165 181 192 185 210 215 235 254 247 204 240 246 255 240 265 288 278 284 287 294 297 318 318 312 315 318
317 316 319 329 81 155 331 304 288 276 278 281 283 286 283 293 251 233 238 217 206 310 269 267 273 236 176 161 159 175 169 203 213 219 232 230 184 198 251 244 258 281 305 304 285 291 298 312 315 326 327 321 324 322
25 33 314 318 310 294 288 285 278 280 282 290 309 300 99 134 194 199 230 244 218 234 278 248 260 246 211 209 145 150 181 185 195 222 236 201 175 228 231 248 258 267 277 282 299 300 315 324 329 324 334 344 337 331
270 273 271 267 271 280 284 278 274 285 158 140 118 66 240 219 237 199 187 179 208 216 229 251 258 254 289 86 130 142 189 205 210 225 216 227 253 252 262 270 269 286 285 279 287 305 318 326 327 339 347 351 353 347
280 281 277 273 273 272 276 275 218 152 139 109 237 251 235 207 183 213 216 206 200 230 223 240 222 238 222 198 142 199 196 203 252 162 207 216 253 251 255 289 309 322 317 309 303 311 334 326 335 345 349 358 1 7
282 278 271 277 274 264 237 251 178 161 186 212 274 281 235 213 205 235 212 203 198 238 192 216 204 198 139 74 285 346 266 259 252 145 231 251 20 17 322 328 332 332 325 334 341 13 344 332 353 350 352 354 6 9
286 278 273 274 264 243 226 221 200 197 215 215 253 244 202 208 205 213 212 195 202 225 163 158 106 92 81 76 88 294 271 239 272 224 229 60 9 301 358 352 0 354 358 355 30 15 344 8 0 4 1 2 359 15
293 283 280 280 258 259 229 214 200 206 193 242 226 254 226 204 229 209 252 236 223 281 226 156 129 97 123 133 177 247 236 246 257 255 235 279 289 13 3 16 10 8 11 37 76 17 10 25 22 23 18 20 15 26
310 315 297 250 268 282 225 198 189 194 227 236 230 232 223 241 264 265 268 199 193 202 172 144 108 123 139 225 219 247 249 238 227 240 178 339 355 355 4 1 19 21 27 42 70 21 36 37 36 32 29 24 31 42
309 343 2 34 329 241 207 188 197 194 245 238 235 247 274 273 270 294 260 237 167 163 139 110 114 179 192 218 214 219 236 229 253 218 287 328 355 4 7 23 33 20 37 37 63 32 29 18 25 23 18 27 41 55
311 86 324 199 209 250 217 206 195 208 241 246 235 240 258 281 289 283 270 231 211 135 106 132 189 216 206 230 224 200 210 221 224 251 273 320 356 30 40 54 29 74 45 17 33 26 360 9 20 17 23 31 59 71
230 262 252 245 236 228 232 213 228 223 239 250 270 271 267 264 268 283 270 230 173 155 153 174 185 221 244 234 313 325 237 218 233 282 294 263 83 76 45 53 70 79 54 43 63 51 43 48 48 37 37 84 79 68
236 312 326 320 214 237 204 219 226 262 235 247 250 251 259 264 265 271 266 197 179 165 161 182 204 229 240 34 77 267 295 263 166 142 74 96 144 68 118 67 93 60 31 47 92 45 38 53 55 42 53 97 71 53
240 274 301 284 227 237 266 241 205 243 259 262 276 269 256 258 260 237 268 205 191 162 207 218 214 216 280 297 278 278 272 157 78 109 103 110 83 106 108 105 65 66 72 76 62 55 49 74 69 54 53 76 92 53
273 273 256 248 219 229 272 282 259 275 303 301 281 279 281 256 265 228 215 214 186 197 236 227 245 288 303 273 270 278 247 171 181 116 107 113 109 80 99 116 83 103 87 87 69 68 69 68 83 75 64 72 73 82
327 264 213 230 246 238 252 248 250 287 268 266 285 280 279 254 214 224 223 159 185 230 251 255 276 298 254 244 263 217 164 205 210 262 246 149 125 110 97 90 117 113 92 78 68 70 69 76 82 86 77 80 77 83
359 298 256 230 246 258 265 268 260 255 263 290 275 222 234 233 222 216 126 187 215 222 238 271 227 232 233 266 239 183 187 238 263 116 132 126 117 130 113 99 123 111 90 61 69 73 76 86 110 102 110 99 88 89
298 269 263 254 208 260 270 240 245 266 250 238 248 258 191 197 130 88 65 336 266 240 236 221 213 216 185 210 225 195 194 259 309 139 142 131 117 111 104 118 120 125 88 62 65 74 94 82 99 106 101 100 91 91
280 251 239 268 256 260 274 276 288 244 267 292 276 8 333 1 170 186 149 179 189 188 189 210 187 155 141 148 153 158 53 317 101 123 133 136 127 122 115 105 111 98 65 68 90 81 99 88 91 90 80 114 85 97
272 230 197 291 309 338 286 287 286 307 283 318 359 343 25 335 307 78 74 145 157 170 155 129 154 138 156 169 122 86 88 108 105 83 101 146 149 138 142 140 122 103 70 76 67 101 90 104 96 90 85 83 87 81
277 273 271 272 276 286 286 290 312 317 1 33 351 331 30 0 56 65 116 85 167 220 240 175 156 156 175 172 115 107 108 106 100 96 92 99 121 121 141 136 124 125 123 82 92 111 82 94 95 116 98 78 77 91
249 278 291 305 302 284 271 294 316 1 2 7 335 315 13 81 298 39 22 287 262 204 157 154 133 160 138 126 125 118 108 108 112 94 99 97 87 107 140 137 133 125 110 99 90 92 99 88 99 94 102 92 54 90
259 278 281 288 306 311 248 83 310 277 249 285 261 291 22 67 82 102 1 128 106 133 132 128 152 160 131 116 119 136 122 117 120 135 138 129 125 128 116 114 118 119 140 125 110 95 108 101 91 110 100 79 56 39
283 296 288 298 321 24 258 227 221 250 257 237 256 300 85 79 97 46 140 118 112 126 113 107 116 158 154 147 131 130 126 114 110 110 102 107 136 145 145 130 142 125 107 100 89 93 106 115 104 91 83 82 90 70
287 301 293 297 310 287 289 255 194 131 80 276 245 141 120 120 85 48 125 88 41 75 115 108 100 101 136 141 137 131 123 120 115 115 105 106 102 105 116 127 146 136 132 62 94 98 100 100 95 112 94 77 64 58
255 268 294 312 310 316 313 328 115 159 177 195 168 146 136 123 94 93 83 105 86 81 92 124 100 99 105 114 127 142 149 155 137 145 142 137 132 120 112 124 125 136 105 133 117 113 113 110 111 109 99 99 88 71
233 253 261 275 283 339 332 2 345 82 63 105 107 141 140 112 85 107 107 45 143 106 106 118 120 124 132 140 145 146 164 182 189 174 168 172 172 170 151 143 147 139 130 138 154 148 139 140 141 125 117 104 100 78
Wind_Speed_850mb
80 74 69 63 57 54 49 44 37 34 28 35 33 27 17 16 10 13 8 6 12 9 38 21 15 13 15 10 2 16 14 5 8 4 4 6 4 5 7 11 8 2 2 5 2 5 9 27 11 5 17 44 37 38
66 60 54 49 45 41 37 30 26 21 30 31 25 19 16 12 11 13 8 6 16 19 37 41 32 37 31 32 16 2 6 13 9 5 7 6 5 7 10 5 12 4 1 4 3 8 30 23 13 14 30 41 45 49
46 40 36 32 29 25 22 20 18 25 26 24 20 15 12 10 11 17 19 13 21 20 40 23 26 21 19 22 24 12 5 5 10 12 8 4 4 6 4 7 11 14 23 5 3 5 15 43 24 45 49 47 53 56
28 27 26 27 25 22 19 18 22 24 20 17 13 9 11 12 14 16 20 8 19 14 9 13 13 6 10 18 28 23 13 5 8 13 3 3 4 8 5 9 11 15 18 10 9 13 47 3 47 52 58 52 56 58
26 24 24 23 21 18 19 20 18 16 14 11 8 6 10 12 12 15 19 14 16 14 9 23 36 23 17 24 26 22 21 20 13 4 3 4 10 7 11 8 9 6 5 2 8 28 26 42 58 52 52 57 60 61
22 21 20 20 20 17 14 12 13 7 7 8 10 14 16 11 9 8 6 3 22 14 11 6 19 10 4 37 36 28 19 12 9 3 5 9 10 2 5 6 14 15 15 19 15 28 40 51 49 48 49 55 55 59
19 17 17 13 10 10 5 2 1 4 5 11 17 22 20 19 19 12 7 5 15 3 6 11 11 9 23 28 27 26 23 12 12 5 7 9 12 8 4 7 17 22 9 20 25 34 38 35 43 50 56 57 52 61
8 7 7 4 2 2 0 4 7 10 17 20 19 17 13 12 8 19 22 9 13 10 8 5 8 6 35 20 14 18 16 14 10 8 9 11 7 10 9 33 39 29 25 27 24 29 39 47 43 51 51 55 54 49
3 2 1 3 5 7 14 17 16 15 11 8 2 2 2 6 3 10 11 8 16 11 6 7 5 3 13 28 13 12 14 6 13 10 9 13 6 11 19 30 31 33 25 32 36 38 38 47 40 46 62 53 52 50
4 8 13 14 17 18 14 10 7 6 5 11 10 2 3 6 11 4 5 7 10 11 12 10 16 5 7 1 5 9 9 5 4 10 9 6 8 46 44 39 35 32 37 39 35 36 37 34 32 55 50 45 42 46
15 14 13 12 11 10 9 7 4 12 15 5 3 4 4 6 6 6 6 8 10 8 13 14 32 13 4 5 4 16 5 5 5 8 6 6 6 10 7 10 17 24 25 27 26 26 22 26 39 43 41 38 41 40
11 10 10 11 9 8 6 5 13 21 11 7 7 7 6 8 7 5 7 10 11 7 17 11 22 22 7 3 1 4 4 3 8 26 6 5 2 9 11 16 19 23 23 21 19 15 14 29 33 31 29 31 40 33
9 8 10 10 9 9 10 7 17 18 17 8 5 6 8 9 8 9 10 7 5 11 13 10 10 8 7 7 1 1 3 7 9 5 5 2 10 12 15 19 20 16 14 16 15 12 22 27 31 29 31 28 32 30
8 11 11 11 8 9 13 11 14 17 6 7 8 6 8 9 10 10 13 4 17 7 9 15 15 6 5 3 2 4 8 6 5 4 3 3 11 10 12 15 16 18 18 12 12 11 26 31 32 32 29 28 30 30
8 11 10 7 6 8 12 17 13 16 8 9 10 8 14 27 29 22 17 14 13 17 14 15 10 10 4 3 6 7 6 6 7 4 4 6 11 14 11 12 8 14 19 15 11 12 20 31 31 36 41 34 28 29
9 5 6 2 1 4 8 16 12 16 9 10 15 13 24 20 22 27 23 16 22 16 15 12 6 4 6 5 8 10 5 8 5 5 9 11 12 11 9 7 6 10 15 17 11 11 20 21 25 36 37 35 32 31
4 1 1 2 5 4 9 18 13 11 11 11 16 32 37 33 27 28 12 6 4 13 5 7 8 10 7 7 6 7 8 6 14 10 7 8 6 10 12 9 8 9 14 15 10 10 14 19 19 18 35 29 25 35
9 12 13 6 8 8 13 22 10 13 16 21 24 29 31 28 33 32 12 8 10 14 16 8 6 6 6 5 3 8 8 8 7 7 9 2 3 10 8 6 9 10 15 11 11 16 13 18 20 20 28 32 43 42
16 10 5 6 6 8 9 12 16 10 24 33 36 42 36 38 31 28 14 8 15 15 9 9 6 5 6 2 4 20 24 7 2 7 7 5 7 4 9 6 11 7 16 7 13 15 13 18 16 19 14 14 28 26
9 11 12 10 8 5 8 11 16 13 13 17 20 28 34 25 27 26 28 26 26 18 13 8 8 15 11 13 12 24 12 2 6 10 11 13 11 17 13 10 10 7 14 15 15 18 16 17 20 22 28 15 13 15
6 10 9 5 5 11 10 10 9 16 19 24 31 28 25 26 25 33 30 28 23 10 8 13 10 20 33 19 15 19 10 4 3 6 11 17 11 11 15 13 14 27 17 13 13 14 18 20 21 18 27 31 29 29
13 3 4 6 6 8 14 17 14 15 13 22 34 24 13 14 21 20 21 9 7 11 9 8 11 11 12 18 21 12 9 6 12 4 5 17 16 15 15 16 20 19 15 14 17 20 18 13 18 13 25 26 30 28
6 3 5 7 7 7 16 12 9 8 7 9 15 11 10 8 12 14 8 11 7 12 16 14 14 16 15 10 7 13 11 9 6 5 30 28 19 19 22 18 19 20 17 11 13 12 17 17 15 17 22 21 24 25
5 5 6 6 13 9 12 9 9 8 11 10 4 8 7 11 14 8 3 5 1 13 16 13 12 12 14 13 12 13 12 8 12 21 25 29 28 24 18 20 17 19 13 13 11 13 19 16 20 17 17 16 24 22
5 6 7 9 10 9 9 8 15 14 24 22 5 8 7 8 2 7 6 15 23 15 9 4 6 8 16 17 29 7 5 8 15 26 26 22 32 31 26 22 25 20 11 10 15 22 20 21 23 22 22 21 19 21
6 6 9 6 10 3 7 8 6 9 9 5 11 6 2 3 2 4 4 9 14 9 6 3 8 17 27 17 14 18 27 25 29 35 17 17 24 33 29 22 21 16 13 14 12 18 22 23 21 23 22 22 18 16
6 7 6 14 14 19 13 15 31 11 8 7 6 8 2 2 5 4 7 5 3 9 8 12 17 23 33 9 16 20 21 25 27 29 32 27 22 18 25 22 25 19 15 13 18 18 17 18 19 21 19 15 18 17
12 10 11 27 18 20 18 14 7 10 7 10 14 5 7 3 2 3 2 5 4 6 17 23 17 30 26 23 20 25 28 24 26 31 31 27 19 17 23 21 21 21 24 19 19 17 22 17 19 15 18 16 19 11
19 22 23 28 18 7 4 5 4 7 6 3 3 4 5 4 6 6 2 15 17 28 35 25 32 26 19 17 27 30 19 23 21 21 30 30 24 25 30 34 33 23 18 15 14 14 18 15 14 17 17 14 18 15
20 16 17 24 11 7 10 17 16 7 12 11 7 1 12 13 11 13 15 18 27 22 20 19 12 16 19 23 26 28 26 26 25 24 25 23 14 20 19 21 32 23 28 30 21 18 20 23 18 15 12 9 10 11
12 14 16 22 18 7 17 4 13 14 14 5 9 5 15 16 18 24 27 10 14 12 17 21 22 19 25 28 25 25 25 25 24 28 25 23 24 22 19 20 26 26 22 10 9 10 15 19 16 15 11 11 15 16
8 10 11 13 22 21 28 8 10 5 14 6 7 13 13 9 12 9 15 17 14 16 16 18 25 26 25 26 24 26 22 24 22 22 24 26 22 20 22 21 16 13 8 13 14 16 15 11 12 13 10 13 13 14
13 10 13 17 16 5 11 10 8 5 7 5 6 12 14 10 10 7 9 5 13 10 14 21 26 24 21 15 12 12 10 10 19 22 23 22 18 19 19 19 17 12 12 12 10 10 10 10 11 13 13 10 12 15
Wind_Direction_850mb
300 300 300 298 296 294 293 290 287 286 287 301 299 295 278 287 269 248 225 238 275 273 287 285 294 269 284 256 144 332 343 271 324 329 17 347 308 319 327 342 321 297 332 227 263 221 262 9 319 353 312 321 327 327
300 300 299 298 296 295 293 292 285 290 296 293 289 274 273 278 264 254 286 317 323 280 270 286 272 247 252 264 257 200 228 277 334 38 10 344 339 314 354 292 40 40 139 231 200 253 322 27 345 327 336 321 317 318
301 301 303 304 304 301 296 289 292 292 290 286 270 262 265 273 270 260 274 271 315 301 312 298 294 247 246 235 232 188 263 7 22 14 18 314 291 11 302 294 5 335 335 230 282 254 3 330 330 329 325 317 314 310
305 309 310 308 305 300 293 285 288 284 275 268 252 254 274 273 268 267 274 260 292 288 276 286 352 220 252 184 203 213 226 296 353 344 14 266 268 327 281 288 286 259 295 326 289 318 340 165 323 317 314 314 313 310
307 309 310 310 314 308 301 289 284 276 269 243 231 279 286 296 270 277 286 230 265 266 292 300 307 266 245 201 192 191 211 246 268 289 65 242 301 340 324 277 254 135 161 228 251 316 281 286 310 316 316 314 316 311
311 307 308 305 297 294 288 284 288 255 229 239 263 279 288 275 274 328 341 244 232 266 303 305 315 266 164 205 181 179 193 198 214 213 248 265 244 258 290 272 187 204 220 224 245 284 285 297 303 316 304 307 322 316
295 299 307 310 303 297 283 139 241 244 262 277 277 285 281 273 252 208 226 158 173 212 278 299 281 264 177 159 165 181 192 185 210 215 235 254 247 204 240 246 255 240 265 288 278 284 287 294 297 318 318 312 315 318
317 316 319 329 81 155 331 304 288 276 278 281 283 286 283 293 251 233 238 217 206 310 269 267 273 236 176 161 159 175 169 203 213 219 232 230 184 198 251 244 258 281 305 304 285 291 298 312 315 326 327 321 324 322
25 33 314 318 310 294 288 285 278 280 282 290 309 300 99 134 194 199 230 244 218 234 278 248 260 246 211 209 145 150 181 185 195 222 236 201 175 228 231 248 258 267 277 282 299 300 315 324 329 324 334 344 337 331
270 273 271 267 271 280 284 278 274 285 158 140 118 66 240 219 237 199 187 179 208 216 229 251 258 254 289 86 130 142 189 205 210 225 216 227 253 252 262 270 269 286 285 279 287 305 318 326 327 339 347 351 353 347
280 281 277 273 273 272 276 275 218 152 139 109 237 251 235 207 183 213 216 206 200 230 223 240 222 238 222 198 142 199 196 203 252 162 207 216 253 251 255 289 309 322 317 309 303 311 334 326 335 345 349 358 1 7
282 278 271 277 274 264 237 251 178 161 186 212 274 281 235 213 205 235 212 203 198 238 192 216 204 198 139 74 285 346 266 259 252 145 231 251 20 17 322 328 332 332 325 334 341 13 344 332 353 350 352 354 6 9
286 278 273 274 264 243 226 221 200 197 215 215 253 244 202 208 205 213 212 195 202 225 163 158 106 92 81 76 88 294 271 239 272 224 229 60 9 301 358 352 0 354 358 355 30 15 344 8 0 4 1 2 359 15
293 283 280 280 258 259 229 214 200 206 193 242 226 254 226 204 229 209 252 236 223 281 226 156 129 97 123 133 177 247 236 246 257 255 235 279 289 13 3 16 10 8 11 37 76 17 10 25 22 23 18 20 15 26
310 315 297 250 268 282 225 198 189 194 227 236 230 232 223 241 264 265 268 199 193 202 172 144 108 123 139 225 219 247 249 238 227 240 178 339 355 355 4 1 19 21 27 42 70 21 36 37 36 32 29 24 31 42
309 343 2 34 329 241 207 188 197 194 245 238 235 247 274 273 270 294 260 237 167 163 139 110 114 179 192 218 214 219 236 229 253 218 287 328 355 4 7 23 33 20 37 37 63 32 29 18 25 23 18 27 41 55
311 86 324 199 209 250 217 206 195 208 241 246 235 240 258 281 289 283 270 231 211 135 106 132 189 216 206 230 224 200 210 221 224 251 273 320 356 30 40 54 29 74 45 17 33 26 360 9 20 17 23 31 59 71
230 262 252 245 236 228 232 213 228 223 239 250 270 271 267 264 268 283 270 230 173 155 153 174 185 221 244 234 313 325 237 218 233 282 294 263 83 76 45 53 70 79 54 43 63 51 43 48 48 37 37 84 79 68
236 312 326 320 214 237 204 219 226 262 235 247 250 251 259 264 265 271 266 197 179 165 161 182 204 229 240 34 77 267 295 263 166 142 74 96 144 68 118 67 93 60 31 47 92 45 38 53 55 42 53 97 71 53
240 274 301 284 227 237 266 241 205 243 259 262 276 269 256 258 260 237 268 205 191 162 207 218 214 216 280 297 278 278 272 157 78 109 103 110 83 106 108 105 65 66 72 76 62 55 49 74 69 54 53 76 92 53
273 273 256 248 219 229 272 282 259 275 303 301 281 279 281 256 265 228 215 214 186 197 236 227 245 288 303 273 270 278 247 171 181 116 107 113 109 80 99 116 83 103 87 87 69 68 69 68 83 75 64 72 73 82
327 264 213 230 246 238 252 248 250 287 268 266 285 280 279 254 214 224 223 159 185 230 251 255 276 298 254 244 263 217 164 205 210 262 246 149 125 110 97 90 117 113 92 78 68 70 69 76 82 86 77 80 77 83
359 298 256 230 246 258 265 268 260 255 263 290 275 222 234 233 222 216 126 187 215 222 238 271 227 232 233 266 239 183 187 238 263 116 132 126 117 130 113 99 123 111 90 61 69 73 76 86 110 102 110 99 88 89
298 269 263 254 208 260 270 240 245 266 250 238 248 258 191 197 130 88 65 336 266 240 236 221 213 216 185 210 225 195 194 259 309 139 142 131 117 111 104 118 120 125 88 62 65 74 94 82 99 106 101 100 91 91
280 251 239 268 256 260 274 276 288 244 267 292 276 8 333 1 170 186 149 179 189 188 189 210 187 155 141 148 153 158 53 317 101 123 133 136 127 122 115 105 111 98 65 68 90 81 99 88 91 90 80 114 85 97
272 230 197 291 309 338 286 287 286 307 283 318 359 343 25 335 307 78 74 145 157 170 155 129 154 138 156 169 122 86 88 108 105 83 101 146 149 138 142 140 122 103 70 76 67 101 90 104 96 90 85 83 87 81
277 273 271 272 276 286 286 290 312 317 1 33 351 331 30 0 56 65 116 85 167 220 240 175 156 156 175 172 115 107 108 106 100 96 92 99 121 121 141 136 124 125 123 82 92 111 82 94 95 116 98 78 77 91
249 278 291 305 302 284 271 294 316 1 2 7 335 315 13 81 298 39 22 287 262 204 157 154 133 160 138 126 125 118 108 108 112 94 99 97 87 107 140 137 133 125 110 99 90 92 99 88 99 94 102 92 54 90
259 278 281 288 306 311 248 83 310 277 249 285 261 291 22 67 82 102 1 128 106 133 132 128 152 160 131 116 119 136 122 117 120 135 138 129 125 128 116 114 118 119 140 125 110 95 108 101 91 110 100 79 56 39
283 296 288 298 321 24 258 227 221 250 257 237 256 300 85 79 97 46 140 118 112 126 113 107 116 158 154 147 131 130 126 114 110 110 102 107 136 145 145 130 142 125 107 100 89 93 106 115 104 91 83 82 90 70
287 301 293 297 310 287 289 255 194 131 80 276 245 141 120 120 85 48 125 88 41 75 115 108 100 101 136 141 137 131 123 120 115 115 105 106 102 105 116 127 146 136 132 62 94 98 100 100 95 112 94 77 64 58
255 268 294 312 310 316 313 328 115 159 177 195 168 146 136 123 94 93 83 105 86 81 92 124 100 99 105 114 127 142 149 155 137 145 142 137 132 120 112 124 125 136 105 133 117 113 113 110 111 109 99 99 88 71
233 253 261 275 283 339 332 2 345 82 63 105 107 141 140 112 85 107 107 45 143 106 106 118 120 124 132 140 145 146 164 182 189 174 168 172 172 170 151 143 147 139 130 138 154 148 139 140 141 125 117 104 100 78